TIANLIAN 1-04

Last updated on Sat Apr 11 2026 00:02:54 GMT+0000 (Coordinated Universal Time)

1 41869U 16072A 26100.34358426 .00000034 00000+0 00000+0 0 9993 2 41869 0.6927 83.1925 0040036 93.3905 322.5337 1.00275454 34622
UTC large
Height (km)
Speed (km/s)
/
Latitude / Longitude
Inclination (degrees)
Orbital Period (minutes)
Azimuth
Elevation
Range (km)
Doppler Factor

Next 0 passes for location: London (51.5072 / 0.1276)

Sorry there are no passes over London.
TIANLIAN 1-04